Wind_Speed
84 82 84 89 86 85 84 86 89 91 92 88 87 81 86 88 90 92 93 92 89 86 81 82 84 85 80 82 80 78 70 65 65 62 68 70 66 67 64 64 60 53 51 48
89 84 88 88 86 87 85 85 88 90 94 89 89 84 87 91 92 93 93 90 89 85 85 88 90 88 86 86 82 73 66 65 64 61 65 72 73 71 65 63 62 54 52 51
91 91 90 88 89 88 89 89 90 90 95 95 94 87 91 91 91 93 93 90 92 93 91 89 84 84 85 83 75 74 69 63 61 61 65 69 73 73 70 63 59 60 54 53
93 95 92 92 89 93 92 95 93 91 92 91 96 87 87 93 97 99 96 95 91 87 81 80 83 82 79 72 71 68 66 63 63 63 63 64 68 72 71 70 66 61 51 53
97 97 96 94 92 93 90 95 97 97 99 95 97 101 86 95 103 102 95 91 88 86 84 79 75 71 69 67 71 66 66 63 66 63 63 64 67 68 70 71 61 54 54 58
98 99 100 98 97 96 97 97 100 102 103 99 100 105 93 101 101 101 96 93 93 85 78 69 63 62 63 66 65 64 60 59 61 59 58 57 58 59 62 62 59 59 54 55
97 98 98 98 98 100 103 106 107 106 104 101 104 103 98 102 102 94 92 90 79 74 67 62 59 58 57 56 52 51 47 49 49 51 52 52 52 49 54 53 49 52 52 53
94 96 96 97 101 104 104 105 105 104 103 103 104 102 99 100 95 92 83 68 61 59 60 58 56 52 47 41 40 39 40 40 40 44 46 48 48 46 47 46 49 50 53 49
91 93 95 98 99 100 100 99 98 101 101 101 97 95 91 89 85 75 62 59 56 56 53 49 47 39 35 35 36 32 30 30 29 34 39 38 39 42 44 44 45 44 45 34
87 90 92 91 93 93 92 93 97 99 98 94 85 80 76 73 69 64 57 57 51 46 41 40 37 29 31 31 29 28 30 28 24 28 33 35 34 38 39 36 31 33 30 29
79 81 78 80 83 83 86 87 88 88 87 77 70 65 65 63 56 53 55 48 43 38 35 37 33 27 29 31 29 32 35 32 27 30 28 29 32 31 33 28 31 32 28 28
62 62 64 71 76 80 82 85 83 79 78 76 69 57 58 53 49 51 47 43 38 34 35 34 34 29 34 34 37 39 41 40 39 39 34 32 36 38 39 36 37 33 31 36
57 61 68 72 73 78 79 80 78 79 74 67 64 54 52 43 45 44 44 40 37 37 37 36 37 36 43 40 42 50 50 48 44 46 43 41 39 40 44 42 43 37 39 39
61 65 69 71 74 74 74 75 74 69 65 62 53 51 42 42 44 44 42 36 39 41 42 40 37 38 45 42 40 47 53 50 48 47 47 46 47 42 41 38 39 37 38 42
63 67 70 69 68 64 60 59 69 60 51 52 52 42 41 44 46 48 43 41 43 44 46 44 37 42 46 42 40 46 53 54 50 52 50 51 49 44 37 34 38 40 50 50
64 64 61 55 58 53 46 59 56 50 43 46 44 39 40 42 47 50 46 46 50 50 49 42 42 46 46 43 42 42 46 54 52 51 47 46 47 46 48 41 45 45 43 46
57 54 47 46 51 45 49 44 43 41 36 38 37 39 37 42 46 49 49 51 50 49 50 45 45 50 49 47 46 45 43 48 53 54 55 52 47 51 55 56 51 48 49 53
49 43 38 42 43 44 41 40 39 36 34 34 36 35 38 45 44 50 51 51 49 49 53 47 46 50 52 50 50 48 46 46 51 55 54 52 55 55 57 58 58 57 59 60
41 39 39 40 39 36 34 34 33 33 31 30 33 34 44 42 46 51 51 52 50 56 57 51 49 48 46 51 52 52 51 48 52 54 54 57 59 56 56 57 59 66 65 66
41 40 37 35 32 30 31 29 30 32 33 36 38 38 45 43 50 54 53 52 54 54 57 58 52 48 43 45 49 56 55 51 50 58 59 60 64 62 60 56 54 63 64 67
36 33 32 28 27 27 27 28 28 32 36 38 38 39 48 52 55 56 60 59 60 59 58 54 55 53 47 47 50 51 58 54 52 53 56 56 56 57 50 52 41 48 55 59
32 30 26 24 24 24 24 26 30 34 37 37 38 44 50 57 58 59 64 62 62 62 62 58 58 53 56 52 51 51 52 54 54 54 54 56 57 60 60 60 60 59 58 59
26 22 21 20 21 20 21 24 29 34 35 35 40 46 51 56 59 59 62 64 64 64 63 64 62 53 60 60 57 52 52 55 58 60 60 59 60 63 65 66 68 70 70 71
18 19 16 16 17 17 19 21 25 27 31 37 44 48 51 52 55 58 55 54 58 59 60 62 66 64 61 60 61 62 61 61 62 62 65 66 66 68 69 71 71 70 71 72
17 18 15 15 16 16 18 20 21 25 29 32 38 41 49 49 50 48 44 39 45 50 58 61 65 67 67 67 62 58 57 59 63 64 66 67 69 72 74 73 73 67 63 67
18 18 18 17 18 19 19 19 19 23 25 29 32 37 41 45 46 45 44 41 39 45 51 55 56 63 66 64 67 64 65 66 69 69 72 72 74 74 72 71 71 71 68 66
Wind_Direction
267 266 266 265 266 269 268 270 270 270 271 273 274 275 276 275 275 275 275 276 276 281 284 288 287 286 282 281 282 281 274 266 262 255 247 248 252 251 251 252 254 263 259 263
267 267 266 268 267 267 265 266 268 270 270 272 271 272 274 274 275 274 275 276 278 281 286 284 285 285 283 283 282 274 266 262 258 254 247 244 245 248 250 251 255 259 257 255
267 266 266 266 266 265 266 268 270 270 271 272 271 270 270 273 274 274 276 281 281 283 284 283 281 281 279 279 273 269 266 260 254 250 248 245 243 245 249 250 250 250 249 253
267 267 268 268 267 268 268 269 269 269 271 272 275 272 272 274 279 282 284 284 284 283 279 281 283 279 274 271 268 266 264 258 254 250 246 243 241 239 242 243 242 245 248 253
267 269 270 269 269 272 271 273 272 271 273 274 276 277 277 278 283 285 284 285 288 287 284 281 274 269 267 265 264 264 262 257 254 249 244 243 244 241 238 240 241 242 251 248
267 267 268 270 273 273 273 273 274 275 275 277 278 279 280 281 285 288 287 287 288 283 279 275 271 267 263 261 261 259 256 251 246 246 244 242 239 239 237 235 237 244 236 243
266 266 267 269 272 275 275 273 274 275 277 279 278 281 284 285 286 284 283 284 279 275 273 271 270 266 262 259 255 250 247 245 242 240 238 236 234 232 230 231 228 222 233 242
267 269 268 268 271 273 274 274 274 275 277 279 280 281 282 283 282 284 286 281 275 272 272 272 270 266 260 251 249 245 242 240 238 236 233 232 227 222 220 215 214 222 232 246
266 266 268 270 271 274 274 275 276 275 276 277 278 282 284 283 284 283 279 277 274 273 272 269 263 258 251 244 240 230 223 217 213 218 217 216 221 218 215 212 222 229 237 255
266 266 269 271 273 273 273 271 272 275 277 278 279 279 281 281 280 278 277 274 273 267 263 257 253 244 238 229 219 215 202 191 200 204 211 204 216 212 210 220 229 233 238 243
266 269 269 271 272 271 270 272 276 278 281 281 280 280 280 278 277 274 270 270 262 255 250 245 238 224 212 209 204 194 192 180 185 195 196 199 203 211 217 224 226 221 224 245
264 266 268 267 267 270 272 277 279 281 279 279 279 280 276 273 267 262 262 257 247 241 234 229 219 210 200 203 198 191 184 183 179 189 194 199 206 207 208 213 211 210 231 238
265 264 265 268 271 273 273 274 277 278 279 278 277 275 271 262 252 251 249 244 237 224 221 221 215 200 198 200 204 192 190 187 186 189 192 198 204 214 223 225 218 218 229 245
266 271 274 275 275 273 275 277 275 274 275 273 276 271 265 250 244 241 241 234 229 222 215 217 212 206 205 204 205 200 196 191 189 189 196 200 204 198 215 214 215 228 237 249
272 273 273 273 273 272 270 271 270 269 267 269 266 262 253 247 240 237 235 222 220 219 214 213 208 208 206 207 207 205 205 202 201 198 198 202 208 212 206 224 227 239 240 238
272 273 274 275 271 269 269 260 265 270 263 261 260 251 245 239 234 233 226 218 215 218 217 211 204 202 202 202 202 206 206 208 206 205 211 214 213 209 211 221 221 222 230 242
275 273 274 273 273 271 267 272 268 267 258 254 248 243 239 233 230 229 222 222 220 220 220 201 200 199 202 201 203 206 209 207 211 214 214 218 223 220 224 226 232 236 237 242
274 274 271 270 270 270 272 269 267 261 254 249 243 238 232 231 230 225 223 223 221 218 218 210 199 200 203 203 206 207 208 212 210 209 208 210 218 220 227 231 237 242 245 251
280 282 276 271 271 271 268 263 259 253 245 237 233 224 225 227 226 224 228 222 222 218 216 215 204 204 204 208 209 208 208 210 214 217 217 215 216 221 227 232 240 242 249 255
281 276 272 271 272 270 262 253 246 240 228 220 220 215 222 221 223 222 225 224 225 221 221 217 214 211 208 209 212 209 211 207 214 219 220 225 222 226 230 243 254 250 257 260
277 277 276 278 272 263 254 244 235 230 226 219 217 214 214 216 220 219 221 224 227 228 228 231 219 211 210 212 211 213 214 213 218 219 223 223 229 231 228 229 237 246 252 259
277 278 277 269 261 253 242 233 223 222 221 217 211 213 213 215 220 218 222 226 229 234 230 232 229 220 213 211 212 212 217 220 221 223 225 226 225 224 230 237 240 246 248 260
274 269 260 252 247 240 233 225 223 223 224 217 212 216 217 218 221 223 227 227 231 234 237 232 234 228 219 216 216 216 219 223 226 227 227 228 232 235 233 240 241 244 252 255
262 249 240 233 235 229 227 224 225 228 227 224 219 216 221 223 224 226 233 233 237 240 242 243 238 239 237 230 231 234 233 230 227 229 230 230 231 236 240 243 244 249 255 244
243 234 225 223 230 229 226 226 228 229 231 231 233 231 224 228 231 236 240 240 238 239 243 245 248 248 245 246 246 238 234 236 236 236 237 238 238 239 244 246 250 252 255 247
238 230 222 215 224 230 228 229 229 230 231 236 234 235 235 235 235 238 240 240 238 242 244 244 245 244 246 245 243 237 236 239 235 234 235 235 238 241 246 249 251 254 259 253
Height
10566 10571 10570 10561 10568 10572 10572 10572 10571 10568 10567 10579 10582 10590 10580 10572 10572 10567 10563 10566 10570 10572 10569 10562 10557 10551 10550 10551 10550 10551 10553 10558 10560 10566 10571 10574 10582 10588 10595 10602 10609 10613 10616 10619
10545 10551 10542 10546 10550 10550 10552 10551 10549 10550 10545 10558 10561 10572 10563 10551 10544 10544 10547 10549 10553 10551 10547 10543 10537 10530 10525 10525 10525 10527 10533 10535 10538 10544 10552 10556 10562 10573 10579 10589 10599 10604 10605 10607
10526 10526 10521 10524 10525 10527 10527 10530 10527 10528 10523 10530 10534 10554 10538 10530 10523 10522 10526 10531 10528 10528 10526 10522 10516 10511 10506 10505 10505 10504 10509 10514 10518 10524 10529 10540 10547 10556 10567 10577 10584 10588 10592 10595
10505 10498 10502 10503 10505 10502 10508 10503 10505 10505 10506 10508 10499 10528 10525 10511 10498 10499 10506 10500 10497 10498 10498 10495 10490 10486 10484 10482 10480 10483 10488 10494 10498 10503 10511 10522 10528 10536 10550 10557 10564 10575 10583 10586
10480 10481 10480 10480 10478 10479 10486 10483 10479 10481 10481 10488 10484 10476 10514 10493 10476 10473 10477 10473 10467 10465 10463 10464 10467 10463 10461 10462 10460 10465 10469 10476 10478 10486 10495 10503 10510 10520 10532 10541 10553 10566 10571 10574
10456 10456 10456 10461 10459 10458 10458 10459 10456 10454 10455 10467 10460 10448 10482 10464 10457 10449 10447 10444 10441 10437 10437 10439 10441 10442 10442 10441 10442 10445 10450 10455 10460 10470 10478 10488 10495 10504 10517 10528 10540 10552 10558 10564
10436 10434 10438 10440 10435 10433 10433 10433 10429 10432 10433 10440 10433 10428 10441 10436 10430 10427 10425 10424 10418 10414 10415 10417 10420 10419 10422 10425 10426 10430 10435 10440 10448 10458 10466 10474 10482 10493 10503 10515 10527 10539 10548 10554
10412 10413 10415 10415 10412 10408 10408 10406 10402 10407 10409 10412 10409 10412 10414 10408 10401 10400 10401 10399 10396 10397 10397 10399 10400 10402 10406 10410 10413 10418 10424 10430 10438 10446 10455 10464 10472 10482 10494 10506 10518 10529 10537 10546
10386 10388 10390 10389 10387 10386 10386 10381 10378 10379 10382 10382 10392 10391 10389 10382 10380 10378 10381 10380 10380 10381 10381 10383 10385 10390 10395 10398 10403 10410 10416 10423 10431 10439 10447 10457 10467 10478 10489 10501 10513 10522 10532 10538
10366 10365 10365 10366 10363 10364 10363 10361 10353 10352 10358 10359 10369 10370 10369 10364 10361 10360 10364 10362 10366 10366 10367 10370 10376 10382 10386 10392 10398 10405 10412 10418 10428 10436 10445 10454 10465 10476 10487 10499 10507 10515 10523 10528
10344 10346 10349 10342 10339 10339 10336 10337 10335 10333 10331 10337 10342 10348 10349 10345 10347 10346 10345 10350 10350 10353 10357 10363 10368 10373 10379 10386 10393 10401 10408 10414 10424 10437 10446 10453 10464 10477 10486 10493 10499 10505 10512 10518
10325 10330 10328 10324 10322 10317 10314 10313 10312 10313 10316 10316 10318 10332 10328 10328 10330 10330 10334 10336 10339 10344 10349 10355 10361 10367 10373 10381 10389 10397 10404 10412 10419 10431 10442 10452 10462 10469 10475 10482 10488 10494 10500 10506
10312 10313 10309 10307 10308 10302 10301 10299 10297 10294 10296 10303 10299 10312 10308 10313 10314 10317 10319 10325 10330 10335 10341 10348 10355 10361 10367 10375 10382 10390 10397 10405 10415 10424 10432 10441 10450 10460 10466 10472 10478 10484 10488 10493
10296 10295 10292 10290 10286 10285 10283 10280 10276 10279 10282 10282 10291 10291 10295 10298 10302 10304 10309 10317 10323 10327 10333 10341 10351 10357 10364 10371 10378 10386 10393 10402 10409 10417 10427 10435 10442 10449 10456 10464 10470 10474 10479 10484
10280 10279 10275 10273 10268 10268 10272 10268 10251 10262 10272 10272 10271 10280 10283 10286 10290 10292 10299 10307 10315 10320 10327 10336 10345 10353 10360 10367 10373 10380 10389 10398 10406 10414 10419 10427 10436 10445 10454 10460 10463 10466 10470 10471
10261 10261 10260 10259 10249 10254 10257 10240 10247 10252 10258 10259 10262 10266 10269 10274 10277 10282 10290 10297 10304 10311 10319 10330 10339 10347 10355 10362 10368 10374 10382 10391 10401 10411 10418 10424 10431 10437 10443 10442 10451 10455 10459 10459
10246 10243 10246 10242 10235 10238 10234 10238 10239 10241 10245 10248 10251 10254 10260 10264 10268 10273 10280 10286 10295 10305 10314 10323 10333 10341 10349 10357 10363 10369 10375 10383 10392 10401 10408 10418 10425 10431 10435 10438 10443 10446 10447 10448
10230 10230 10230 10226 10225 10225 10227 10227 10228 10230 10233 10237 10241 10248 10252 10254 10262 10267 10273 10280 10291 10300 10309 10320 10328 10335 10343 10350 10357 10363 10369 10377 10384 10389 10398 10408 10416 10424 10424 10430 10433 10436 10436 10436
10214 10214 10213 10212 10213 10216 10216 10215 10217 10219 10224 10229 10232 10240 10242 10249 10256 10262 10266 10275 10284 10294 10304 10313 10322 10329 10336 10343 10351 10358 10364 10371 10377 10384 10392 10399 10404 10410 10417 10422 10420 10423 10424 10424
10202 10201 10201 10203 10203 10204 10202 10204 10206 10209 10214 10218 10222 10231 10234 10244 10249 10255 10260 10271 10279 10288 10297 10306 10316 10323 10329 10336 10343 10351 10357 10363 10369 10376 10381 10385 10393 10399 10403 10406 10407 10411 10407 10406
10190 10190 10190 10193 10191 10192 10193 10195 10198 10202 10207 10211 10217 10226 10231 10237 10242 10250 10256 10263 10272 10281 10289 10297 10309 10317 10322 10329 10334 10341 10349 10355 10360 10366 10370 10377 10382 10388 10389 10392 10395 10390 10388 10389
10180 10181 10181 10182 10181 10183 10186 10189 10192 10196 10200 10207 10214 10220 10226 10231 10236 10244 10249 10257 10265 10270 10282 10289 10298 10308 10313 10320 10326 10331 10338 10344 10348 10354 10359 10364 10369 10374 10379 10380 10383 10383 10379 10380
10171 10173 10173 10174 10174 10178 10181 10184 10188 10192 10197 10205 10211 10216 10221 10226 10231 10237 10241 10249 10256 10262 10269 10280 10287 10295 10304 10310 10315 10320 10326 10332 10337 10341 10346 10351 10356 10359 10364 10364 10367 10369 10368 10368
10166 10165 10167 10167 10169 10173 10177 10181 10185 10189 10195 10200 10205 10210 10215 10220 10226 10230 10234 10242 10248 10255 10261 10268 10277 10284 10291 10298 10305 10309 10313 10318 10322 10326 10331 10335 10339 10343 10345 10347 10350 10352 10352 10351
10160 10159 10161 10163 10165 10169 10173 10177 10182 10186 10191 10196 10201 10205 10210 10214 10219 10223 10228 10234 10240 10246 10253 10259 10265 10272 10278 10283 10288 10294 10298 10302 10306 10310 10314 10318 10321 10324 10326 10328 10330 10332 10332 10332
10154 10155 10157 10159 10161 10164 10168 10172 10177 10181 10187 10191 10195 10200 10205 10209 10212 10216 10220 10225 10231 10237 10242 10246 10251 10258 10263 10268 10273 10277 10282 10286 10289 10292 10296 10300 10303 10305 10308 10309 10310 10311 10312 10313